P/2019 LM4 ( Palomar )

Japanese version
Home page
Updated on May 30, 2020

---------------------------------------------------------------------

* Profile

Discovery Date June 4, 2019
Magnitude 19.0 mag
Discoverer Q.-Z. Ye (Palomar Mountain), Z. T. F. Collaboration

* Pictures

* Orbital Elements

Epoch 2019 June 6.0 TT = JDT 2458640.5                                          
T 2019 June 18.23319 TT                                 Rudenko                 
q   2.3713551            (2000.0)            P               Q                  
n   0.07197957     Peri.   68.36086     -0.60629755     -0.55759450             
a   5.7235199      Node    72.85926     +0.30622933     -0.82171654             
e   0.5856824      Incl.   36.39560     +0.73391204     -0.11777225             
P  13.7                                                                         
From 105 observations 2019 June 4-2020 May 14, mean residual 0".5.              

* Magnitudes Graph

        m1 = 11.0 + 5 log d + 10.0 log r(t - 250)

---------------------------------------------------------------------

The orbital elements are published on M.P.E.C. 2020-J68.
The magnitudes graphs are made with Comet for Windows.

---------------------------------------------------------------------

Copyright(C) Seiichi Yoshida (comet@aerith.net). All rights reserved.